Погода в Саскылахе

Погода в Саскылахе : погода сейчас, прогноз погоды и архив. Всё, что Вы хотите узнать о погоде в Саскылахе!

Хотите узнать прогноз погоды в Саскылахе? Тогда Вам сюда: Погода в Саскылахе

Поиск расширенной информации на нашем сайте:

Другие новости

Новости СМИ2

Главная страница сайта

Новости сайта

03.07.2017

Напоминаем, что на нашем специализированном сайте Метеоцентр.Азия вы можете получить высокодетализированные автоматические прогнозы погоды по пунктам России, СНГ и мира в авиационном формате (включающие направление и скорость ветра, видимость, явления погоды, количество и форму облачности, нижнюю и верхнюю границу облачности).


Погода в Саскылахе - сегодня

Время (UTC), дата Ветер
(°,м/с) 
Видим.   Явления Облачность Т
(°С)
Тd
(°С)
f(%) Тe
(°С)
Pmin
(гПа)
dP
(гПа)
Po
(мм)
O2
(г/м3)
Тmin Tmax R s Состояние
почвы
03 14.08.18 140 (ЮВ) 20000 м    10/0 средняя 
[Ac und]
+12.3 +9.6 84 +14  1009.4  0.5  755  290           
06 14.08.18 150 (ЮВ) 20000 м    10/0 средняя 
[Ac und]
+13.4 +10.5 83 +16  1008.7  -0.7  755  288           
09 14.08.18 180 (Ю) 20000 м    4/0 средняя, верхняя 
[Ac trans|Ci fib]
+18.3 +8.7 53 +19  1007.7  -1  754  283           
12 14.08.18 280 (З) н/о    н/о 
+17 +5.7 47 +17  1008.2  0.8  755  285    +19.9       
15 14.08.18 270 (З) н/о    н/о 
+9.8 +4.1 68 +10  1009.3  755  293           
18 14.08.18 160 (Ю) н/о    н/о 
+7.2 +4.9 85 +8  1009.3  755  296           
21 14.08.18 130 (ЮВ) н/о    н/о 
+10 +5.6 74 +10  1008.8  -0.4  755  293           
00 15.08.18 190 (Ю) 20000 м    4/0 средняя 
[Ac cast]
+15.8 +5.2 49 +16  1007.8  -1.3  754  286  +7.1        сухая 
03 15.08.18 180 (Ю) 20000 м    6/0 средняя, верхняя 
[Ac lent|Ci fib]
+19.8 +5.7 40 +20  1006.2  -1.6  753  282           
06 15.08.18 200 (Ю) 20000 м    6/0 верхняя 
[Ci fib]
+22.9 +3.9 29 +23  1004.6  -1.5  752  279           
09 15.08.18 220 (ЮЗ) 20000 м    6/0 верхняя 
[Ci fib]
+23.2 +5.3 31 +23  1003.7  -0.9  751  278           
12 15.08.18 250 (З) 3{10}  н/о    н/о 
+20.5 +7.6 43 +21  1003.1  -0.4  751  280    +24       
15 15.08.18 250 (З) н/о    н/о 
+16.4 +9.3 63 +18  1003.1  751  284           
18 15.08.18 140 (ЮВ) н/о    н/о 
+13.3 +11.1 87 +18  1002.7  -0.4  751  286           
21 15.08.18 140 (ЮВ) 20000 м    4/0 средняя 
[Ac und]
+12.1 +10.4 89 +14  1003  751  288           
09 16.08.18 270 (З) 20000 м    8/8 800 м кучево-дожд. 
[Cb cap]
+16.1 +10 67 +17  1005  1.2  752  284           
12 16.08.18 330 (СЗ) 20000 м    8/8 840 м кучево-дожд. 
[Cb cap]
+14.2 +10.4 78 +16  1007.1  1.9  754  287    +17.9    сухая 
15 16.08.18 280 (З) 20000 м    10/10 600 м 
[Sc]
+12.5 +10.2 86 +14  1007.5  0.4  754  289           
18 16.08.18 190 (Ю) н/о    н/о 
+10.5 +9.6 94 +12  1007.5  0.2  754  291           
21 16.08.18 130 (ЮВ) 20000 м    10/0 средняя 
[Ac und]
+10.2 +9.6 96 +11  1006.8  -1  753  291           
00 17.08.18 100 (В) 20000 м    10/10 800 м 
[Ns]
+10.4 +9.8 96 +11  1005.8  -1  753  290  +10.1        сухая 
09 17.08.18 340 (С) 20000 м    10/10 400 м 
[Sc]
+12.6 +11.7 94 +15  1005.9  1.9  753  288           
12 17.08.18 320 (СЗ) 20000 м    8/8 570 м 
[Sc diur, vesp]
+12.3 +10.4 88 +14  1007  1.1  754  289    +13.2    влажная 
15 17.08.18 320 (СЗ) 20000 м    10/10 180 м 
[Frnb|Ns]
+11.2 +10.4 95 +12  1008.1  1.1  754  290           
18 17.08.18 360 (С) 20000 м    10/10 150 м 
[St]
+6.6 +6.4 99 +6  1009.7  1.5  756  296           
Время (UTC), дата Ветер
(°,м/с) 
Видим.   Явления Облачность Т
(°С)
Тd
(°С)
f(%) Тe
(°С)
Pmin
(гПа)
dP
(гПа)
Po
(мм)
O2
(г/м3)
Тmin Tmax R s Состояние
почвы

Для получения пояснительной информации подведите курсор к названию столбца.

ПОГОДА в Саскылахе - архив

Всё, что Вы хотите узнать о погоде в Саскылахе - удобно и подробно!

Выберите нужную дату (начиная с 1 января 2015* года) и нажмите кнопку "Найти".
Будут отображены архивные сводки погоды по пункту Саскылах, начиная с указанной даты.


Отображать данные в формате CSV (для использования в таблицах Excel)


Внимание! Наш архив погоды предназначен исключительно для личного некоммерческого использования в познавательных целях. Если Вам необходимы официальные справки о состоянии погоды (для производственных, юридических, коммерческих и т.п. целей), обращайтесь в органы Росгидромета.

*Примечание: данная дата относится к архиву по метеостанциям СССР (Россия, СНГ, Балтия).
Архив по метеостанциям Зарубежной Европы и Азии (кроме Китая) хранится 10 дней, по другим регионам земного шара (Китай, Африка, Америка, Австралия, Океания) - 1 день.

Саскылах - район местоположения метеостанции


Название, широта, долгота, высота метеостанции:
Саскылах 72°ш. 114.1°д. 18 м над ур. моря [Российская Федерация]

Дополнительная информация

В oтличие oт бoльшинства пoгoдных сайтoв мы публикуем пoдрoбную метеoинфoрмацию в детальнoм прoфессиoнальнoм фoрмате.

Характеристики температуры и влажнoсти вoздуха измеряются на высoте 2 м в тени вдали oт зданий и деревьев.
Скoрoсть ветра измеряется на высoте 10 м (на урoвне рoста челoвека скoрoсть ветра ниже в 1.5-2 раза). Если метеoстанция нахoдится в гoрoде или в лесу, тo скoрoсть ветра занижена на 2-4 м/с пo сравнению с oткрытым местoм. Скoрoсть ветра над акватoриями крупных рек и oзёр, а также на вершинах хoлмoв на 2-5 м/с выше, чем в oбычных услoвиях.
Атмoсфернoе давление в разных тoчках местнoсти мoжет значительнo oтличаться oт давления на метеoстанции, в зависимoсти oт услoвий рельефа (при пoдъёме на 10 м давление пoнижается примернo на 1 мм рт.ст.).